Location: Naloco
(16.5478°S, 37.1017°E)
Time: 02:12:32
(UTC+00:00)

Cosmos 2239 Rocket - Pass Details

Date: 13 August 2020
Orbit: 955 x 990 km, 82.9° (Epoch: 23 September)

Event Time Altitude Azimuth Distance (km) Brightness Sun altitude
Rises 16:42:27 0° 176° (S) 3,672 7.4 -19.6°
Reaches altitude 10° 16:45:03 10° 171° (S) 2,715 6.6 -20.2°
Maximum altitude 16:51:06 53° 95° (E) 1,167 4.5 -21.6°
Drops below altitude 10° 16:57:02 10° 19° (NNE) 2,676 6.7 -23.0°
Sets 16:59:34 0° 15° (NNE) 3,615 7.4 -23.6°
